TimeEST,TemperatureF,Dew PointF,Humidity,Sea Level PressureIn,VisibilityMPH,Wind Direction,Wind SpeedMPH,Gust SpeedMPH,PrecipitationIn,Events,Conditions,WindDirDegrees,DateUTC
12:00 AM,21.2,17.6,86,30.37,10.0,Calm,Calm,-,N/A,,Scattered Clouds,0,2013-03-08 05:00:00
1:53 AM,15.1,12.9,91,30.46,10.0,Calm,Calm,-,N/A,,Clear,0,2013-03-08 06:53:00
2:53 AM,12.9,10.0,88,30.47,10.0,Calm,Calm,-,N/A,,Clear,0,2013-03-08 07:53:00
3:53 AM,10.9,10.0,96,30.48,10.0,Calm,Calm,-,N/A,,Clear,0,2013-03-08 08:53:00
4:53 AM,10.0,7.0,87,30.48,10.0,Calm,Calm,-,N/A,,Clear,0,2013-03-08 09:53:00
5:53 AM,8.1,6.1,92,30.49,10.0,Calm,Calm,-,N/A,,Scattered Clouds,0,2013-03-08 10:53:00
6:05 AM,5.0,1.4,85,30.42,10.0,Calm,Calm,-,N/A,,Mostly Cloudy,0,2013-03-08 11:05:00
6:39 AM,8.6,6.8,92,30.42,10.0,Calm,Calm,-,N/A,,Overcast,0,2013-03-08 11:39:00
6:53 AM,9.0,5.0,84,30.50,10.0,Calm,Calm,-,N/A,,Mostly Cloudy,0,2013-03-08 11:53:00
7:53 AM,12.0,9.0,88,30.52,6.0,Calm,Calm,-,N/A,,Overcast,0,2013-03-08 12:53:00
8:11 AM,15.8,14.0,93,30.44,1.5,Calm,Calm,-,N/A,,Overcast,0,2013-03-08 13:11:00
8:19 AM,15.8,15.8,100,30.44,0.5,Calm,Calm,-,N/A,Fog,Light Freezing Fog,0,2013-03-08 13:19:00
8:34 AM,17.6,17.6,100,30.44,0.2,Calm,Calm,-,N/A,Fog,Light Freezing Fog,0,2013-03-08 13:34:00
8:53 AM,18.0,18.0,100,30.51,0.2,Calm,Calm,-,N/A,Fog,Light Freezing Fog,0,2013-03-08 13:53:00
9:04 AM,17.6,17.6,100,30.44,0.5,WSW,3.5,-,N/A,Fog,Light Freezing Fog,250,2013-03-08 14:04:00
9:16 AM,19.4,17.6,93,30.45,1.0,WSW,4.6,-,N/A,,Overcast,240,2013-03-08 14:16:00
9:24 AM,19.4,19.4,100,30.45,0.8,WSW,4.6,-,N/A,,Mist,250,2013-03-08 14:24:00
9:42 AM,21.2,21.2,100,30.45,0.2,Calm,Calm,-,N/A,Fog,Light Freezing Fog,0,2013-03-08 14:42:00
9:53 AM,23.0,23.0,100,30.51,0.2,Calm,Calm,-,N/A,Fog,Light Freezing Fog,0,2013-03-08 14:53:00
10:12 AM,24.8,24.8,100,30.45,0.2,Calm,Calm,-,N/A,Fog,Light Freezing Fog,0,2013-03-08 15:12:00
10:36 AM,24.8,23.0,93,30.45,1.0,Calm,Calm,-,0.00,Snow,Light Snow,0,2013-03-08 15:36:00
10:53 AM,25.0,23.0,92,30.51,1.8,Calm,Calm,-,0.00,,Overcast,0,2013-03-08 15:53:00
10:56 AM,24.8,24.8,100,30.44,3.0,Calm,Calm,-,N/A,,Overcast,0,2013-03-08 15:56:00
11:05 AM,24.8,24.8,100,30.44,2.0,Calm,Calm,-,N/A,,Overcast,0,2013-03-08 16:05:00
11:15 AM,26.6,24.8,93,30.44,5.0,Calm,Calm,-,N/A,,Overcast,0,2013-03-08 16:15:00
11:53 AM,27.0,26.1,96,30.49,10.0,Calm,Calm,-,N/A,,Scattered Clouds,0,2013-03-08 16:53:00
12:53 PM,35.1,26.1,70,30.47,10.0,Calm,Calm,-,N/A,,Clear,0,2013-03-08 17:53:00
1:53 PM,37.0,25.0,62,30.45,10.0,South,6.9,-,N/A,,Clear,170,2013-03-08 18:53:00
2:53 PM,37.9,24.1,57,30.43,10.0,South,6.9,-,N/A,,Clear,170,2013-03-08 19:53:00
3:53 PM,39.9,21.9,49,30.43,10.0,South,9.2,-,N/A,,Clear,170,2013-03-08 20:53:00
4:53 PM,39.9,21.9,49,30.42,10.0,South,6.9,-,N/A,,Clear,180,2013-03-08 21:53:00
5:53 PM,39.0,19.0,45,30.42,10.0,SSW,8.1,-,N/A,,Clear,210,2013-03-08 22:53:00
6:53 PM,35.1,18.0,50,30.42,10.0,South,3.5,-,N/A,,Clear,180,2013-03-08 23:53:00
7:53 PM,33.1,19.0,56,30.41,10.0,South,3.5,-,N/A,,Clear,190,2013-03-09 00:53:00
8:53 PM,30.0,19.0,64,30.41,10.0,South,4.6,-,N/A,,Clear,190,2013-03-09 01:53:00
9:53 PM,26.1,17.1,69,30.42,10.0,Calm,Calm,-,N/A,,Clear,0,2013-03-09 02:53:00
10:53 PM,27.0,18.0,69,30.41,10.0,South,3.5,-,N/A,,Clear,190,2013-03-09 03:53:00
11:53 PM,24.1,16.0,71,30.39,10.0,South,4.6,-,N/A,,Clear,180,2013-03-09 04:53:00